Theta_e
310 309 304 300 299 301 301 304 306 306 304 301 306 310 312 313 313 307 307 307 307 311 322 327 329 329 330 329 329 328 325 325 324 326 323 320 318 315 314 316 320 324 326
309 305 301 300 300 299 299 305 306 305 305 303 303 303 308 312 313 310 307 307 307 307 314 323 327 327 328 328 327 327 327 325 323 326 326 325 316 313 314 315 316 316 318
308 303 302 301 299 301 306 305 305 305 305 305 305 305 307 310 312 310 308 308 307 306 309 315 325 326 327 327 327 326 325 324 324 328 326 323 323 320 318 319 320 320 321
306 304 304 302 298 308 307 306 306 306 307 307 306 307 308 309 310 309 308 308 308 309 314 316 322 324 326 327 326 325 324 321 322 325 327 325 325 324 324 324 323 323 323
307 305 305 302 298 306 307 307 307 307 307 306 307 308 309 310 311 309 309 308 309 312 317 317 320 322 324 325 324 323 321 322 322 320 323 325 326 326 324 324 325 324 324
308 306 306 302 299 300 304 307 307 307 307 307 307 309 309 309 308 309 309 309 310 315 318 319 319 321 323 323 320 320 318 319 320 320 322 322 322 321 322 321 324 324 324
309 308 307 303 300 297 298 307 307 307 308 308 307 309 309 310 307 309 308 309 311 316 317 319 321 322 321 320 319 318 316 318 319 320 320 320 321 321 322 323 323 325 325
309 309 308 304 301 297 297 299 304 307 308 309 308 308 309 311 311 312 312 311 312 315 316 316 315 316 319 319 318 316 319 320 320 321 319 319 321 321 321 321 319 321 322
310 309 308 304 302 298 297 296 297 306 307 309 309 308 310 310 311 312 313 315 316 316 316 316 317 316 315 316 316 318 317 315 314 315 316 317 319 320 319 317 318 314 318
310 310 310 306 303 299 297 296 296 296 306 309 311 309 309 310 311 311 311 312 313 314 314 316 315 315 315 314 314 314 315 315 315 313 313 308 308 308 313 311 312 314 311
310 311 311 308 304 301 297 296 296 295 296 307 309 310 311 311 311 312 312 313 313 313 312 314 314 314 313 312 311 312 312 309 306 305 301 298 297 295 295 296 296 297 299
307 308 312 310 307 303 298 297 296 295 295 295 306 309 309 309 310 310 310 311 311 311 310 309 309 310 310 310 303 297 295 294 294 294 296 297 295 294 294 294 294 294 294
308 308 308 311 309 304 301 297 296 296 296 295 295 297 300 305 307 307 304 301 301 303 306 305 300 295 294 294 294 293 293 293 293 293 293 293 293 294 294 294 294 294 294
308 309 309 310 310 306 303 299 297 296 295 295 295 295 294 294 294 294 293 293 293 294 294 294 294 293 293 293 293 293 293 293 293 293 293 293 293 294 294 294 294 295 295
308 309 308 309 310 309 304 302 298 296 296 295 294 294 294 293 293 293 293 293 293 293 292 292 292 292 292 292 292 292 292 292 292 293 293 293 293 294 294 294 294 294 294
307 307 307 307 310 310 307 304 300 297 296 295 295 294 293 293 293 292 292 292 292 292 292 292 292 292 292 291 291 292 292 292 292 292 292 292 292 292 292 292 292 292 293
307 306 305 307 308 310 309 306 303 298 297 296 295 295 294 293 293 292 292 292 292 292 292 292 291 291 292 291 291 291 292 292 292 292 291 291 291 291 291 291 291 292 292
307 305 305 305 308 309 309 307 304 300 297 296 296 295 294 294 293 293 292 292 291 291 291 291 291 291 291 291 291 291 291 291 291 291 291 291 291 290 290 290 290 290 291
306 305 305 305 307 308 309 307 305 303 299 296 296 295 295 294 293 292 292 292 292 292 291 291 291 291 291 290 290 291 291 291 290 290 290 289 290 289 289 290 290 290 290
306 306 305 305 305 307 308 308 307 305 302 298 296 296 295 294 294 293 292 291 291 291 291 291 291 290 290 290 290 290 290 290 290 290 289 289 288 288 289 290 289 289 289
305 306 305 305 304 305 307 308 307 306 304 299 296 296 295 294 293 292 292 292 291 291 291 290 290 290 290 290 290 289 289 289 289 289 289 289 288 288 289 288 288 287 288
305 306 305 305 304 304 306 307 307 306 304 300 296 295 295 294 293 292 292 291 291 290 290 290 290 290 289 289 289 289 289 288 288 288 288 288 288 287 288 288 287 287 287
306 305 305 305 305 304 304 306 306 305 304 301 298 295 294 294 293 292 291 291 290 290 290 290 289 289 289 288 288 288 287 287 287 287 286 286 287 287 288 287 287 287 287
306 306 305 304 304 304 304 304 304 304 303 302 300 296 295 294 293 292 291 291 290 290 289 289 289 289 288 288 288 288 286 286 286 286 286 286 286 286 287 287 287 287 287
307 306 305 304 304 304 304 304 304 303 302 301 300 296 295 294 293 292 291 290 290 289 289 289 288 288 288 287 287 287 287 286 286 286 286 286 286 287 287 287 286 286 286
306 305 304 304 304 304 304 303 303 303 302 301 300 297 295 294 293 292 290 290 289 289 288 288 288 288 287 287 286 287 286 286 286 286 286 286 286 285 285 285 285 285 285
Wind_Speed
16 17 14 18 20 22 26 29 30 28 30 31 33 34 32 30 31 30 30 29 28 29 28 27 29 35 39 28 27 22 22 21 18 19 20 20 22 23 24 25 28 30 31
13 11 15 17 22 28 30 32 31 29 24 26 27 27 29 27 26 26 24 25 25 25 28 27 25 24 22 25 26 26 26 21 20 17 17 14 20 21 18 18 21 25 28
13 14 16 19 22 24 26 27 27 24 19 19 20 19 20 22 22 22 19 16 18 21 23 26 28 28 25 24 22 22 20 21 19 15 13 7 7 18 25 26 28 28 28
12 14 17 19 19 23 24 23 23 21 20 19 18 16 17 18 15 16 16 16 17 16 18 24 25 26 27 24 20 19 20 23 20 19 20 22 23 20 24 28 31 32 33
12 14 16 18 18 21 24 21 19 19 20 21 20 16 13 12 11 11 13 13 14 13 13 17 22 24 26 20 15 15 18 20 22 21 22 21 21 24 29 35 28 30 31
13 15 16 17 18 17 22 19 20 20 19 19 17 12 11 13 10 10 13 11 9 9 9 15 20 24 24 22 19 21 18 23 23 18 15 17 20 24 27 33 33 37 40
14 15 15 16 18 18 17 20 18 18 18 18 12 12 9 7 3 6 9 10 7 7 5 8 11 10 8 11 17 21 16 21 20 18 18 19 20 23 25 29 34 30 32
14 14 14 15 15 16 14 15 19 17 16 17 13 12 12 8 6 4 3 5 5 6 6 13 8 12 10 12 12 11 15 15 18 17 18 20 22 24 26 31 25 27 23
12 13 12 13 14 14 13 14 15 16 15 14 13 11 10 11 8 6 2 2 4 4 6 3 6 7 14 18 16 17 17 16 18 17 20 22 21 20 21 17 16 13 7
12 13 13 13 14 14 12 12 13 14 13 12 10 9 7 7 6 4 1 2 3 7 6 7 6 7 10 15 15 17 16 16 16 18 19 19 18 19 22 22 21 19 14
17 17 15 14 14 13 11 10 10 10 10 8 6 6 6 2 1 3 4 2 1 2 2 3 8 12 13 15 16 16 16 18 18 17 16 16 17 17 18 18 18 19 21
25 21 19 17 15 13 11 9 8 8 8 8 6 4 3 4 4 5 6 7 8 9 9 8 8 11 13 14 13 11 12 12 13 14 16 16 17 17 18 19 19 19 19
26 25 21 20 17 14 12 10 7 6 6 5 5 5 6 5 5 6 7 7 9 9 10 10 10 9 8 8 9 10 10 11 13 13 14 14 15 16 18 18 20 20 20
25 19 19 20 19 17 15 13 10 9 7 5 4 4 4 5 6 6 6 7 8 8 8 8 8 8 8 7 8 8 8 9 10 11 12 14 15 16 18 19 20 21 23
22 22 24 21 21 19 17 16 13 11 10 8 6 5 5 5 6 7 7 7 7 8 7 6 6 7 7 8 8 7 7 8 10 12 14 16 18 20 20 21 20 20 21
21 24 22 20 22 22 19 17 16 14 12 10 8 7 6 6 5 5 6 6 6 6 7 8 8 8 8 8 9 11 11 12 14 15 15 15 16 17 18 20 19 16 17
21 17 22 20 18 22 20 20 17 16 15 13 11 9 8 8 8 8 8 8 7 7 7 7 8 8 9 10 11 12 12 13 14 16 17 17 18 19 20 19 18 17 18
14 21 24 22 19 18 21 20 20 20 17 16 14 12 10 9 9 9 9 9 9 9 9 9 9 8 9 10 11 13 13 15 17 18 19 21 20 20 18 19 22 23 24
15 22 22 20 17 17 18 22 22 21 20 18 16 14 13 12 12 11 11 10 10 10 10 10 10 9 10 11 13 15 15 16 18 19 20 21 21 19 19 22 26 29 29
18 25 23 21 18 17 18 23 24 22 22 20 17 17 16 15 13 12 12 12 11 11 10 11 11 11 11 12 14 16 18 19 20 20 20 21 17 18 20 23 26 29 29
26 27 24 23 19 17 18 23 25 25 20 20 21 20 18 16 15 14 12 12 12 12 12 11 12 12 13 14 16 17 17 18 19 21 22 21 20 20 22 21 24 24 26
31 29 26 22 18 17 19 22 27 22 21 22 23 22 20 18 17 15 13 13 13 13 13 12 12 13 13 14 15 16 14 12 17 19 20 19 21 22 22 23 21 22 23
32 29 27 24 21 20 19 23 24 24 23 25 25 23 21 20 18 16 14 14 14 14 14 13 13 12 12 12 13 14 10 12 12 16 16 18 20 22 22 21 21 22 23
31 29 28 28 27 24 23 22 22 24 26 27 26 25 24 21 19 18 17 16 15 14 14 13 12 12 12 13 13 11 12 13 14 15 18 19 19 20 20 20 20 20 22
31 30 29 30 30 23 24 23 23 26 29 28 28 26 25 23 20 19 18 16 15 15 14 14 13 13 13 12 9 10 12 13 14 16 17 18 19 20 22 21 21 21 23
43 36 32 31 30 27 28 27 26 28 29 31 30 29 27 24 22 20 18 17 16 16 15 14 14 14 14 13 9 11 9 12 15 16 17 18 18 20 22 23 24 23 24
Wind_Direction
313 319 328 325 324 326 327 330 326 318 299 288 281 271 268 268 270 266 259 257 261 257 257 263 256 251 247 245 242 246 248 247 252 263 265 269 271 271 274 276 274 273 274
313 313 321 328 330 333 332 331 330 327 311 303 291 288 276 270 271 268 263 255 259 262 255 259 251 247 233 245 244 239 238 247 249 256 276 294 286 283 283 284 284 281 275
304 314 325 336 337 333 332 335 341 345 343 329 316 300 280 271 272 272 266 265 270 265 252 259 251 245 235 236 237 239 249 249 251 248 243 273 265 297 296 293 290 284 276
291 310 328 332 332 348 343 346 348 353 354 348 333 320 301 283 274 279 273 276 264 263 254 246 254 252 248 235 235 241 250 255 256 255 255 255 263 279 292 292 292 290 278
291 309 321 325 338 351 354 356 354 347 347 345 332 320 322 305 301 291 293 291 270 275 254 244 252 252 246 228 225 250 254 259 262 265 271 278 282 281 282 286 290 294 287
288 303 315 326 332 341 353 355 353 353 350 346 351 332 318 295 314 318 305 289 282 275 257 247 246 248 246 245 261 269 266 276 266 263 274 280 281 285 287 287 290 285 289
287 303 316 323 331 339 345 357 354 352 355 358 5 4 345 332 322 304 300 284 279 269 274 201 208 219 240 242 235 247 264 257 264 270 273 275 276 278 280 282 295 294 297
287 296 309 314 325 336 341 346 358 353 357 356 3 4 5 359 349 310 249 265 235 245 249 251 268 289 263 263 261 262 254 263 264 274 276 280 279 285 282 284 284 293 297
286 291 298 307 319 330 337 345 349 358 355 5 359 16 21 13 3 15 49 145 172 161 153 214 194 242 255 278 265 268 268 273 278 283 283 279 277 275 274 277 286 307 293
299 297 298 304 313 323 332 341 350 356 1 358 5 8 19 31 9 22 15 137 152 167 183 202 231 265 256 262 274 276 276 283 280 274 276 274 279 282 278 289 289 291 293
316 301 299 296 299 310 321 330 340 352 3 356 353 356 348 356 349 347 351 329 236 197 199 222 243 260 266 272 280 288 283 273 269 271 273 287 288 289 287 286 292 294 293
319 302 289 285 287 294 305 313 324 337 348 358 349 336 327 321 328 311 292 282 272 261 258 254 252 259 262 267 273 272 269 272 277 284 285 286 291 292 293 295 296 293 290
313 309 283 275 282 282 288 292 296 307 315 329 345 346 334 314 301 289 297 300 300 293 286 286 286 290 291 286 282 287 295 300 306 308 306 304 302 304 305 307 304 302 299
309 311 304 273 273 276 277 282 283 283 286 293 309 320 319 313 312 310 305 305 303 301 297 288 281 281 282 282 282 285 291 301 306 310 311 311 313 314 312 308 306 303 300
309 309 310 292 269 269 269 270 272 271 272 273 278 285 292 296 297 298 299 297 296 299 301 302 301 300 301 301 302 304 305 307 310 311 311 311 312 312 310 308 307 307 308
315 315 309 292 271 266 269 265 264 264 264 265 268 275 286 292 292 288 286 287 289 289 291 295 298 301 303 302 314 322 320 323 324 319 314 309 305 302 304 306 305 308 308
312 322 325 306 277 264 263 260 260 255 257 257 259 267 279 294 302 306 305 302 298 296 292 289 287 286 288 293 298 301 307 310 316 319 319 317 315 312 312 316 317 311 307
291 317 318 307 284 270 256 254 251 253 253 251 253 257 263 269 280 289 294 295 295 297 296 294 292 292 294 298 304 305 315 319 320 321 321 319 315 318 324 321 314 312 309
305 324 319 310 293 270 257 249 249 251 251 252 255 257 260 268 278 282 283 283 282 284 286 289 291 291 291 294 300 306 309 312 317 318 321 325 324 327 326 324 320 317 313
309 323 313 306 296 282 265 246 247 249 249 250 251 250 252 253 256 263 276 282 280 280 280 282 281 285 289 295 302 308 310 312 312 314 319 324 326 325 325 320 317 313 316
302 312 306 303 298 280 265 248 244 249 253 244 243 245 246 249 253 261 270 274 277 282 280 279 284 291 297 299 302 303 304 311 314 318 323 327 327 327 323 321 316 317 316
292 298 295 295 291 281 262 249 245 258 251 245 245 245 246 247 252 257 264 268 272 275 279 281 283 287 292 298 301 300 308 314 314 322 326 328 328 324 325 325 324 321 317
297 288 288 286 284 277 265 254 256 252 249 244 244 243 244 248 252 255 259 264 270 272 274 277 281 284 292 300 301 296 312 317 321 321 321 318 323 324 324 323 325 327 327
296 291 280 277 284 277 269 267 259 252 249 246 244 242 242 243 247 251 255 260 265 272 274 278 281 287 299 310 316 318 322 326 322 328 324 330 327 326 330 332 332 335 335
298 291 279 274 282 275 268 266 259 251 247 246 244 240 240 242 243 247 253 258 264 269 272 275 280 290 298 307 311 307 319 321 319 319 328 328 330 334 338 341 342 341 340
300 289 281 277 278 277 273 268 257 247 245 243 240 239 238 239 241 245 249 257 263 267 274 281 285 284 285 291 289 302 308 310 316 321 324 325 333 340 344 345 343 344 344